EW0125 Weather Reports


time (UTC)temp
C
wind
direction
speed
KPH
gust
KPH
rain 1hr
cm
rain 24hr
cm
rain mn
cm
humidity
%
barometer
mb
20260507160553 12 12 3.2 14.5 0.00 0.38 0.38 84 1011.5
20260507160100 13 29 4.8 14.5 0.00 0.38 0.38 84 1011.5
20260507155553 13 0 3.2 9.7 0.00 0.43 0.38 84 1011.8
20260507155052 13 13 3.2 9.7 0.00 0.43 0.38 84 1011.6
20260507154554 13 49 3.2 14.5 0.00 0.43 0.38 84 1011.3
20260507154053 13 50 3.2 14.5 0.00 0.43 0.38 84 1011.6
20260507153552 13 24 4.8 14.5 0.00 0.43 0.38 84 1011.5
20260507153100 13 42 3.2 9.7 0.00 0.43 0.38 85 1011.4
20260507152556 13 49 3.2 14.5 0.00 0.43 0.38 85 1011.3
20260507152051 13 48 3.2 14.5 0.00 0.43 0.38 86 1011.4
20260507151619 13 85 4.8 11.3 0.00 0.43 0.38 86 1011.5
20260507151052 13 54 1.6 9.7 0.00 0.43 0.38 86 1011.6
20260507150553 13 54 1.6 12.9 0.00 0.43 0.38 86 1011.5
20260507150101 13 53 3.2 12.9 0.00 0.43 0.38 87 1011.5
20260507145555 13 38 4.8 14.5 0.00 0.48 0.38 87 1011.5
20260507145052 13 54 4.8 14.5 0.00 0.48 0.38 88 1011.3
20260507144556 13 30 1.6 6.4 0.00 0.48 0.38 89 1011.2
20260507144053 13 30 1.6 6.4 0.00 0.48 0.38 89 1011.1
20260507143552 13 30 1.6 9.7 0.00 0.48 0.38 89 1010.9
20260507143055 13 33 1.6 9.7 0.00 0.48 0.38 89 1011.1
20260507142554 13 26 3.2 14.5 0.00 0.48 0.38 89 1011.4
20260507142052 13 44 1.6 14.5 0.00 0.48 0.38 89 1011.5
20260507141557 13 9 1.6 12.9 0.00 0.48 0.38 89 1011.7
20260507141052 13 50 3.2 12.9 0.00 0.48 0.38 89 1011.5
20260507140553 13 62 1.6 9.7 0.00 0.48 0.38 90 1011.6
20260507140110 13 34 3.2 12.9 0.00 0.48 0.38 90 1011.5
20260507135553 13 77 1.6 12.9 0.00 0.51 0.38 90 1011.6
20260507135056 13 28 3.2 11.3 0.00 0.51 0.38 90 1011.5
20260507134557 13 88 3.2 12.9 0.00 0.51 0.38 90 1011.5
20260507134053 13 13 4.8 12.9 0.00 0.51 0.38 90 1011.4
20260507133553 13 91 3.2 12.9 0.00 0.51 0.38 91 1011.4
20260507133057 14 51 3.2 11.3 0.00 0.51 0.38 91 1011.1
20260507132552 14 0 3.2 9.7 0.00 0.51 0.38 91 1011.0
20260507132051 14 41 1.6 9.7 0.00 0.51 0.38 91 1011.0
20260507131602 14 0 3.2 9.7 0.00 0.51 0.38 91 1011.0
20260507131054 14 44 3.2 8.0 0.00 0.51 0.38 91 1011.1
20260507130552 14 49 0.0 8.0 0.00 0.51 0.38 91 1010.9
20260507130056 14 49 3.2 8.0 0.00 0.51 0.38 91 1010.9
20260507125554 13 51 1.6 8.0 0.00 0.51 0.38 91 1011.2
20260507125053 13 51 3.2 8.0 0.00 0.51 0.38 91 1011.4
20260507124559 13 51 1.6 4.8 0.00 0.51 0.38 91 1011.3
20260507124052 13 50 1.6 4.8 0.00 0.51 0.38 92 1011.2
20260507123552 13 50 1.6 6.4 0.00 0.51 0.38 92 1010.9
20260507123054 13 50 1.6 6.4 0.00 0.51 0.38 91 1011.1
20260507122553 13 50 0.0 4.8 0.00 0.51 0.38 92 1011.2
20260507122053 13 50 1.6 4.8 0.00 0.51 0.38 91 1011.0
20260507121556 13 50 0.0 4.8 0.00 0.51 0.38 91 1011.2
20260507121052 13 45 0.0 4.8 0.00 0.51 0.38 91 1010.9
20260507120552 13 0 0.0 6.4 0.00 0.51 0.38 91 1011.0
20260507120054 13 44 1.6 6.4 0.00 0.51 0.38 91 1010.9
20260507115553 13 0 0.0 6.4 0.00 0.51 0.38 91 1011.1
20260507115052 13 45 1.6 8.0 0.00 0.51 0.38 91 1011.2
20260507114553 13 44 1.6 8.0 0.00 0.51 0.38 91 1011.2
20260507114053 13 0 3.2 8.0 0.03 0.51 0.38 91 1010.9
20260507113551 13 44 1.6 8.0 0.03 0.51 0.38 91 1011.1
20260507113055 13 44 1.6 12.9 0.03 0.51 0.38 91 1011.1
20260507112552 13 13 3.2 14.5 0.03 0.51 0.38 91 1010.9
20260507112055 13 63 3.2 14.5 0.03 0.51 0.38 90 1010.9
20260507111554 13 55 6.4 14.5 0.03 0.51 0.38 90 1010.9
20260507111051 13 33 3.2 9.7 0.05 0.51 0.38 90 1011.0
20260507110551 13 112 1.6 9.7 0.05 0.51 0.38 90 1011.0
20260507110057 13 28 1.6 11.3 0.10 0.51 0.38 90 1011.0
20260507105553 13 28 1.6 11.3 0.18 0.51 0.38 90 1010.5
20260507105056 14 23 4.8 11.3 0.30 0.51 0.38 90 1010.4
20260507104554 14 355 1.6 8.0 0.33 0.51 0.38 90 1010.2
20260507104053 14 348 3.2 14.5 0.33 0.48 0.36 90 1010.4
20260507103554 14 61 6.4 14.5 0.33 0.48 0.36 90 1010.3
20260507103054 14 57 4.8 14.5 0.33 0.48 0.36 89 1010.2
20260507102553 15 42 3.2 16.1 0.36 0.48 0.36 89 1010.2
20260507102053 15 346 6.4 16.1 0.36 0.48 0.36 89 1010.1
20260507101606 15 9 4.8 14.5 0.36 0.48 0.36 89 1009.9
20260507101052 15 337 4.8 20.9 0.33 0.46 0.33 89 1009.9
20260507100555 16 28 6.4 20.9 0.33 0.46 0.33 89 1009.9
20260507095553 16 16 4.8 16.1 0.20 0.33 0.20 88 1009.9
20260507095052 17 13 6.4 17.7 0.08 0.20 0.08 88 1009.7
20260507094602 17 56 6.4 20.9 0.05 0.18 0.05 88 1009.7
20260507094057 18 32 4.8 20.9 0.03 0.15 0.03 87 1009.6
20260507093552 18 5 3.2 19.3 0.03 0.15 0.03 87 1009.4
20260507093055 19 5 6.4 19.3 0.03 0.15 0.03 89 1009.5
20260507092553 20 321 0.0 3.2 0.00 0.13 0.00 89 1009.4
20260507092054 20 0 1.6 3.2 0.00 0.13 0.00 89 1009.3
20260507091604 20 0 0.0 3.2 0.00 0.13 0.00 89 1009.5
20260507091101 20 0 0.0 6.4 0.00 0.13 0.00 89 1009.3
20260507090553 20 321 1.6 6.4 0.00 0.13 0.00 89 1009.4
20260507090115 20 322 0.0 6.4 0.00 0.13 0.00 89 1009.5
20260507085555 20 323 0.0 6.4 0.00 0.13 0.00 89 1009.2
20260507085053 20 261 0.0 4.8 0.00 0.13 0.00 89 1009.4
20260507084600 20 260 1.6 4.8 0.00 0.13 0.00 89 1009.4
20260507084052 20 0 0.0 4.8 0.00 0.13 0.00 88 1009.2
20260507083553 20 259 1.6 4.8 0.00 0.13 0.00 88 1009.1
20260507083101 20 259 0.0 1.6 0.00 0.13 0.00 88 1009.1
20260507082552 20 0 0.0 3.2 0.00 0.13 0.00 88 1008.9
20260507082052 20 0 0.0 3.2 0.00 0.13 0.00 88 1008.7
20260507081602 20 259 0.0 3.2 0.00 0.13 0.00 88 1008.4
20260507081052 20 0 0.0 3.2 0.00 0.13 0.00 88 1008.6
20260507080552 20 0 0.0 4.8 0.00 0.13 0.00 88 1008.5
20260507080056 20 258 0.0 6.4 0.00 0.13 0.00 87 1008.5
20260507075552 20 258 1.6 6.4 0.00 0.13 0.00 87 1008.3
20260507075052 20 266 3.2 6.4 0.00 0.13 0.00 87 1008.3
20260507074556 20 277 1.6 4.8 0.00 0.13 0.00 87 1008.6
20260507074053 20 0 0.0 11.3 0.00 0.13 0.00 87 1008.6
20260507073552 20 278 1.6 11.3 0.00 0.13 0.00 87 1008.6
20260507073108 20 319 1.6 8.0 0.00 0.13 0.00 87 1008.7
20260507072553 20 257 0.0 12.9 0.00 0.13 0.00 87 1008.5
20260507072052 20 258 1.6 12.9 0.00 0.13 0.00 87 1008.8
20260507071601 20 184 3.2 12.9 0.00 0.13 0.00 87 1008.9
20260507071053 20 242 3.2 12.9 0.00 0.13 0.00 87 1009.1
20260507070553 20 268 3.2 11.3 0.00 0.13 0.00 87 1008.9
20260507070138 20 198 1.6 12.9 0.00 0.13 0.00 87 1008.8
20260507065556 20 204 1.6 12.9 0.00 0.13 0.00 87 1008.9
20260507065052 20 165 0.0 9.7 0.00 0.13 0.00 86 1008.8
20260507064604 20 188 3.2 11.3 0.00 0.13 0.00 87 1008.8
20260507064053 20 192 3.2 11.3 0.00 0.13 0.00 87 1008.8
20260507063553 20 177 1.6 11.3 0.00 0.13 0.00 87 1008.7
20260507063101 20 163 3.2 12.9 0.00 0.13 0.00 86 1008.7
20260507062552 20 194 1.6 12.9 0.00 0.13 0.00 86 1008.7
20260507062054 20 207 3.2 12.9 0.00 0.13 0.00 86 1009.0
20260507061603 20 211 1.6 9.7 0.00 0.13 0.00 86 1008.9
20260507061050 20 198 1.6 9.7 0.00 0.13 0.00 85 1008.8
20260507060549 20 198 1.6 9.7 0.00 0.13 0.00 85 1008.8
20260507060054 20 171 0.0 8.0 0.00 0.13 0.00 85 1008.8
20260507055553 20 171 0.0 9.7 0.00 0.13 0.00 85 1008.7
20260507055054 20 0 1.6 9.7 0.00 0.13 0.00 85 1008.9
20260507054556 20 189 1.6 8.0 0.00 0.13 0.00 84 1008.8
20260507054053 21 178 1.6 8.0 0.00 0.13 0.00 85 1008.8
20260507053554 21 167 3.2 12.9 0.00 0.13 0.00 85 1009.1
20260507053054 21 196 3.2 12.9 0.00 0.13 0.00 84 1009.2
20260507052553 21 165 3.2 12.9 0.00 0.13 0.00 84 1009.3
20260507052053 21 199 3.2 16.1 0.00 0.13 0.00 84 1009.2
20260507051552 21 173 1.6 16.1 0.00 0.13 0.00 84 1009.4
20260507051053 21 184 3.2 12.9 0.00 0.13 0.00 84 1009.4
20260507050552 21 207 1.6 16.1 0.00 0.13 0.00 84 1009.6
20260507050056 21 180 4.8 16.1 0.00 0.13 0.00 83 1009.8
20260507045553 21 248 1.6 8.0 0.00 0.13 0.00 83 1010.0
20260507045056 21 189 1.6 11.3 0.00 0.13 0.00 83 1009.9
20260507044559 21 262 3.2 11.3 0.00 0.13 0.00 83 1010.2
20260507044053 21 185 3.2 8.0 0.00 0.13 0.00 83 1010.1
20260507043553 21 214 1.6 11.3 0.00 0.13 0.00 83 1010.1
20260507043055 21 190 3.2 11.3 0.00 0.13 0.00 83 1009.9
20260507042554 21 196 1.6 9.7 0.00 0.13 0.00 83 1009.9
20260507042053 21 196 3.2 9.7 0.00 0.13 0.00 83 1009.9
20260507041552 21 210 1.6 8.0 0.00 0.13 0.00 83 1010.0
20260507041053 21 184 1.6 11.3 0.00 0.13 0.00 83 1010.1
20260507040554 20 237 1.6 11.3 0.00 0.13 0.00 84 1010.0
20260507040055 20 0 1.6 11.3 0.00 0.13 0.00 84 1009.8
20260507035552 20 193 1.6 9.7 0.00 0.13 0.13 84 1009.7
20260507035052 20 193 3.2 9.7 0.00 0.13 0.13 84 1009.7
20260507034601 20 268 0.0 9.7 0.00 0.13 0.13 84 1009.8
20260507034052 20 187 1.6 8.0 0.00 0.13 0.13 85 1009.7
20260507033552 20 0 1.6 8.0 0.00 0.13 0.13 85 1009.7
20260507033055 20 186 1.6 8.0 0.00 0.13 0.13 85 1009.6
20260507032553 20 0 1.6 8.0 0.00 0.13 0.13 85 1009.5
20260507032052 20 180 1.6 6.4 0.00 0.13 0.13 85 1009.5
20260507031554 20 0 0.0 6.4 0.00 0.13 0.13 84 1009.6
20260507031055 20 180 1.6 6.4 0.00 0.13 0.13 84 1009.5
20260507030553 20 180 0.0 4.8 0.00 0.13 0.13 84 1009.6
20260507030116 20 180 0.0 4.8 0.00 0.13 0.13 84 1009.4
20260507025552 20 0 0.0 4.8 0.00 0.13 0.13 84 1009.3
20260507025053 20 180 0.0 4.8 0.00 0.13 0.13 84 1009.4
20260507024605 20 180 0.0 3.2 0.00 0.13 0.13 84 1009.6
20260507024057 20 0 0.0 3.2 0.00 0.13 0.13 84 1009.6
20260507023556 20 180 0.0 4.8 0.00 0.13 0.13 84 1009.6
20260507023055 20 0 0.0 4.8 0.00 0.13 0.13 84 1009.7
20260507022552 20 0 0.0 4.8 0.00 0.13 0.13 84 1009.7
20260507022053 20 0 0.0 6.4 0.00 0.13 0.13 84 1009.7
20260507021616 20 180 0.0 6.4 0.00 0.13 0.13 84 1009.6
20260507021052 20 180 0.0 6.4 0.00 0.13 0.13 84 1009.9
20260507020552 20 0 0.0 8.0 0.00 0.13 0.13 84 1010.1
20260507020103 20 0 0.0 8.0 0.00 0.13 0.13 83 1010.3
20260507015549 20 179 0.0 4.8 0.00 0.13 0.13 83 1010.1
20260507015054 20 0 0.0 4.8 0.00 0.13 0.13 83 1009.8
20260507014614 20 179 0.0 3.2 0.00 0.13 0.13 82 1010.0
20260507014052 20 0 0.0 4.8 0.00 0.13 0.13 82 1010.0
20260507013551 20 0 0.0 4.8 0.00 0.13 0.13 82 1009.8
20260507013056 20 0 1.6 4.8 0.00 0.13 0.13 81 1009.8
20260507012558 20 0 0.0 3.2 0.00 0.13 0.13 81 1009.7
20260507012053 20 179 0.0 3.2 0.00 0.13 0.13 81 1009.7
20260507011555 20 0 0.0 3.2 0.00 0.13 0.13 81 1009.8
20260507011055 20 0 0.0 3.2 0.00 0.13 0.13 80 1009.8
20260507010555 20 0 0.0 1.6 0.00 0.13 0.13 80 1009.7
20260507010109 20 0 0.0 1.6 0.00 0.13 0.13 80 1009.7
20260507005553 21 179 0.0 3.2 0.00 0.13 0.13 80 1009.9
20260507005052 21 0 0.0 8.0 0.00 0.13 0.13 80 1009.7
20260507004553 21 179 0.0 9.7 0.00 0.13 0.13 79 1009.7
20260507004052 21 0 1.6 9.7 0.00 0.13 0.13 79 1009.7
20260507003552 21 0 0.0 4.8 0.00 0.13 0.13 79 1009.9
20260507003054 21 0 1.6 4.8 0.00 0.13 0.13 79 1009.7
20260507002552 21 0 0.0 4.8 0.00 0.13 0.13 79 1009.8
20260507002050 21 0 1.6 8.0 0.00 0.13 0.13 79 1009.9
20260507001558 21 280 0.0 8.0 0.00 0.13 0.13 78 1009.9
20260507001051 21 195 1.6 8.0 0.00 0.13 0.13 78 1010.0
20260507000552 21 218 1.6 8.0 0.00 0.13 0.13 78 1010.0
20260507000059 21 0 1.6 8.0 0.00 0.13 0.13 78 1010.0
20260506235554 21 154 1.6 9.7 0.00 0.13 0.13 78 1009.9
20260506235055 22 263 3.2 9.7 0.00 0.13 0.13 78 1009.7
20260506234558 22 207 1.6 9.7 0.00 0.13 0.13 78 1009.4
20260506234052 22 178 1.6 9.7 0.00 0.13 0.13 77 1009.4
20260506233553 22 171 1.6 4.8 0.00 0.13 0.13 77 1009.5
20260506233059 22 243 1.6 6.4 0.00 0.13 0.13 77 1009.3
20260506232552 22 179 1.6 6.4 0.00 0.13 0.13 77 1009.4
20260506232052 22 0 0.0 8.0 0.00 0.13 0.13 77 1009.6
20260506231556 22 176 1.6 8.0 0.00 0.13 0.13 77 1009.6
20260506231055 22 223 0.0 6.4 0.00 0.13 0.13 77 1009.6
20260506230556 22 210 0.0 6.4 0.00 0.13 0.13 77 1009.5
20260506230103 22 0 1.6 9.7 0.00 0.13 0.13 77 1009.4
20260506225552 22 207 3.2 12.9 0.00 0.13 0.13 77 1009.5
20260506225053 22 273 1.6 12.9 0.00 0.13 0.13 76 1009.6
20260506224558 22 242 0.0 6.4 0.00 0.13 0.13 76 1009.5
20260506224051 22 229 1.6 6.4 0.00 0.13 0.13 76 1009.4
20260506223553 22 0 0.0 8.0 0.00 0.13 0.13 76 1009.3
20260506223055 22 204 1.6 8.0 0.00 0.13 0.13 76 1009.4
20260506222553 22 195 1.6 8.0 0.00 0.13 0.13 76 1009.5
20260506222053 22 0 0.0 6.4 0.00 0.13 0.13 76 1009.4
20260506221558 22 227 1.6 9.7 0.00 0.13 0.13 75 1009.2
20260506221052 22 262 1.6 9.7 0.00 0.13 0.13 75 1009.3
20260506220552 22 0 1.6 6.4 0.00 0.13 0.13 75 1009.3
20260506220057 23 234 1.6 6.4 0.00 0.13 0.13 75 1009.4
20260506215556 23 194 0.0 19.3 0.00 0.13 0.13 75 1009.3
20260506215053 23 188 3.2 19.3 0.00 0.13 0.13 74 1009.4
20260506214554 23 238 0.0 9.7 0.00 0.13 0.13 75 1009.4
20260506214052 23 236 1.6 9.7 0.00 0.13 0.13 74 1009.4
20260506213552 23 194 3.2 16.1 0.00 0.13 0.13 75 1009.6
20260506213054 22 249 3.2 16.1 0.00 0.13 0.13 75 1009.7
20260506212555 22 286 4.8 16.1 0.00 0.13 0.13 75 1009.7
20260506212052 22 169 1.6 16.1 0.00 0.13 0.13 75 1009.7
20260506211554 22 176 3.2 11.3 0.00 0.13 0.13 75 1009.6
20260506211053 22 159 3.2 17.7 0.00 0.13 0.13 75 1009.5
20260506210552 22 197 3.2 17.7 0.00 0.13 0.13 75 1009.6
20260506210055 22 237 4.8 17.7 0.00 0.13 0.13 75 1009.5
20260506205553 22 298 1.6 11.3 0.00 0.13 0.13 75 1009.8
20260506205052 22 196 1.6 16.1 0.00 0.13 0.13 75 1009.7
20260506204555 22 186 3.2 16.1 0.00 0.13 0.13 75 1009.7
20260506204053 22 186 4.8 19.3 0.00 0.13 0.13 76 1009.6
20260506203552 22 270 3.2 19.3 0.00 0.13 0.13 75 1009.8
20260506203055 22 202 4.8 16.1 0.00 0.13 0.13 76 1009.5
20260506202552 22 194 4.8 16.1 0.00 0.13 0.13 76 1009.4
20260506202052 22 148 1.6 12.9 0.00 0.13 0.13 76 1009.4
20260506201617 22 269 4.8 17.7 0.00 0.13 0.13 76 1009.3
20260506201053 22 205 3.2 17.7 0.00 0.13 0.13 76 1009.1
20260506200554 22 199 4.8 19.3 0.00 0.13 0.13 77 1009.0
20260506200055 22 261 4.8 19.3 0.00 0.13 0.13 77 1008.9
20260506195552 22 224 4.8 19.3 0.00 0.13 0.13 78 1008.8
20260506195054 22 176 4.8 17.7 0.00 0.13 0.13 78 1008.8
20260506194554 22 184 4.8 16.1 0.00 0.13 0.13 78 1008.8
20260506194053 22 0 3.2 16.1 0.00 0.13 0.13 78 1009.0
20260506193553 22 285 3.2 19.3 0.00 0.13 0.13 78 1009.1
20260506193056 22 195 1.6 19.3 0.00 0.13 0.13 79 1009.2
20260506192552 22 213 3.2 17.7 0.00 0.13 0.13 79 1009.4
20260506192052 21 175 3.2 17.7 0.00 0.13 0.13 79 1009.2
20260506191558 21 174 4.8 16.1 0.00 0.13 0.13 79 1009.3
20260506191053 21 203 3.2 17.7 0.00 0.13 0.13 79 1009.5
20260506190555 21 176 4.8 17.7 0.00 0.13 0.13 80 1009.5
20260506190054 21 188 4.8 12.9 0.00 0.13 0.13 80 1009.8
20260506185552 21 196 3.2 11.3 0.00 0.13 0.13 81 1009.9
20260506185052 21 169 1.6 22.5 0.00 0.13 0.13 81 1010.2
20260506184601 20 164 3.2 22.5 0.00 0.13 0.13 82 1010.1
20260506184052 20 182 1.6 14.5 0.00 0.13 0.13 82 1010.3
20260506183555 20 176 4.8 14.5 0.00 0.13 0.13 82 1010.6
20260506183055 20 205 3.2 12.9 0.00 0.13 0.13 83 1010.8
20260506182556 20 193 3.2 9.7 0.00 0.13 0.13 82 1011.0
20260506182053 20 177 1.6 14.5 0.00 0.13 0.13 83 1011.0
20260506181555 20 190 1.6 14.5 0.00 0.13 0.13 83 1011.0
20260506181053 20 236 3.2 14.5 0.00 0.13 0.13 83 1011.2
20260506180552 20 178 1.6 14.5 0.00 0.13 0.13 83 1011.3
20260506180056 20 215 3.2 14.5 0.00 0.13 0.13 82 1011.3
20260506175553 20 193 3.2 14.5 0.00 0.13 0.13 82 1011.4
20260506175054 20 261 3.2 14.5 0.00 0.13 0.13 82 1011.5
20260506174554 19 181 3.2 12.9 0.00 0.13 0.13 82 1011.4
20260506174053 19 173 1.6 16.1 0.00 0.13 0.13 82 1011.3
20260506173554 19 162 3.2 16.1 0.00 0.13 0.13 82 1011.2
20260506173120 19 189 4.8 16.1 0.00 0.13 0.13 83 1011.0
20260506172552 19 216 3.2 16.1 0.00 0.13 0.13 83 1011.0
20260506172052 19 142 1.6 14.5 0.00 0.13 0.13 83 1011.2
20260506171559 19 200 1.6 24.1 0.00 0.13 0.13 83 1011.1
20260506171052 19 201 4.8 24.1 0.00 0.13 0.13 84 1011.1
20260506170551 19 175 4.8 17.7 0.00 0.13 0.13 84 1011.2
20260506165556 18 165 3.2 17.7 0.00 0.13 0.13 84 1011.3
20260506165053 18 154 1.6 9.7 0.00 0.13 0.13 84 1011.3
20260506164555 18 0 3.2 12.9 0.00 0.13 0.13 84 1011.3
20260506164051 18 217 3.2 19.3 0.00 0.13 0.13 84 1011.1
20260506163553 18 178 4.8 19.3 0.00 0.13 0.13 84 1011.4
20260506163109 18 203 3.2 17.7 0.00 0.13 0.13 85 1011.4
20260506162552 18 186 6.4 17.7 0.00 0.13 0.13 85 1011.6
20260506162053 18 206 4.8 17.7 0.00 0.13 0.13 85 1011.6
20260506161600 18 205 3.2 16.1 0.00 0.13 0.13 85 1011.8
20260506161053 18 200 4.8 9.7 0.00 0.13 0.13 85 1012.0